Location: Cosy Dell
(34.2789°N, 117.4537°W)
Time: 19:41:08
(UTC+00:00)

Cosmos 2369 - Pass Details

Date: 14 July 2020
Orbit: 838 x 857 km, 71.0° (Epoch: 13 August)

Event Time Altitude Azimuth Distance (km) Brightness Sun altitude
Rises 10:12:28 0° 340° (NNW) 3,431 7.3 -25.4°
Reaches altitude 10° 10:14:56 10° 342° (NNW) 2,493 6.6 -25.1°
Maximum altitude 10:20:41 78° 69° (ENE) 879 3.8 -24.4°
Enters shadow 10:23:52 27° 152° (SSE) 1,570 4.9 -24.0°
